OVO3101 ZGGG-ZBAA

Flight info

Callsign OVO3101
Flight time 2h 44m
Altitude 29100
Route MIKIP A461 BUBDA/K0911S0920 W56 REBIS/K0928S0950 W56 LEBUN/K0915S0980 W56 NUDKU/K0915S0950 W56 DUGEB
Aircraft B77F/H-SDE2E3FGHIJ5LORVWXY/LB1D1

Departure

Time 2026-05-05 11:35
Airport Guangzhou Baiyun International Airport (ZGGG)

Arrival

Time 2026-05-05 14:19
Airport Beijing Capital International Airport (ZBAA)
Time Latitude Longitude Altitude Speed Heading
2026-05-05 11:04 23.40565 113.32337 57 ft 0 kts 104°
2026-05-05 11:16 23.40567 113.32331 57 ft 2 kts 104°
2026-05-05 11:16 23.40570 113.32316 57 ft 2 kts 104°
2026-05-05 11:16 23.40574 113.32300 57 ft 2 kts 104°
2026-05-05 11:16 23.40579 113.32285 57 ft 2 kts 125°
2026-05-05 11:17 23.40589 113.32273 57 ft 2 kts 145°
2026-05-05 11:17 23.40602 113.32265 57 ft 2 kts 165°
2026-05-05 11:17 23.40617 113.32263 57 ft 2 kts 184°
2026-05-05 11:17 23.40626 113.32265 57 ft 1 kts 195°
2026-05-05 11:18 23.40628 113.32265 57 ft 0 kts 194°
2026-05-05 11:21 23.40614 113.32261 57 ft 3 kts 194°
2026-05-05 11:21 23.40580 113.32251 57 ft 6 kts 195°
2026-05-05 11:21 23.40527 113.32237 57 ft 9 kts 192°
2026-05-05 11:22 23.40463 113.32220 57 ft 9 kts 194°
2026-05-05 11:22 23.40399 113.32202 57 ft 10 kts 194°
2026-05-05 11:22 23.40328 113.32182 57 ft 11 kts 192°
2026-05-05 11:22 23.40247 113.32162 57 ft 12 kts 193°
2026-05-05 11:23 23.40161 113.32139 57 ft 13 kts 193°
2026-05-05 11:23 23.40069 113.32115 57 ft 13 kts 195°
2026-05-05 11:23 23.39972 113.32087 57 ft 14 kts 193°
2026-05-05 11:23 23.39871 113.32061 57 ft 15 kts 194°
2026-05-05 11:24 23.39793 113.32040 57 ft 12 kts 192°
2026-05-05 11:24 23.39712 113.32019 57 ft 11 kts 194°
2026-05-05 11:24 23.39639 113.31999 57 ft 10 kts 193°
2026-05-05 11:24 23.39600 113.31984 57 ft 1 kts 225°
2026-05-05 11:25 23.39595 113.31968 57 ft 4 kts 259°
2026-05-05 11:25 23.39596 113.31919 57 ft 8 kts 279°
2026-05-05 11:25 23.39614 113.31840 57 ft 11 kts 284°
2026-05-05 11:25 23.39633 113.31760 57 ft 10 kts 284°
2026-05-05 11:26 23.39634 113.31728 57 ft 4 kts 252°
2026-05-05 11:26 23.39611 113.31699 57 ft 5 kts 215°
2026-05-05 11:26 23.39569 113.31680 57 ft 7 kts 199°
2026-05-05 11:26 23.39512 113.31664 57 ft 9 kts 193°
2026-05-05 11:27 23.39444 113.31646 57 ft 10 kts 193°
2026-05-05 11:27 23.39366 113.31625 57 ft 12 kts 193°
2026-05-05 11:27 23.39280 113.31601 57 ft 13 kts 194°
2026-05-05 11:27 23.39185 113.31576 57 ft 14 kts 194°
2026-05-05 11:28 23.39085 113.31549 57 ft 15 kts 194°
2026-05-05 11:28 23.38978 113.31520 57 ft 16 kts 194°
2026-05-05 11:28 23.38867 113.31489 57 ft 16 kts 194°
2026-05-05 11:28 23.38750 113.31458 57 ft 17 kts 193°
2026-05-05 11:29 23.38631 113.31428 57 ft 17 kts 193°
2026-05-05 11:29 23.38509 113.31393 57 ft 18 kts 194°
2026-05-05 11:29 23.38384 113.31358 57 ft 18 kts 192°
2026-05-05 11:29 23.38268 113.31329 57 ft 16 kts 194°
2026-05-05 11:30 23.38164 113.31300 57 ft 14 kts 194°
2026-05-05 11:30 23.38068 113.31274 57 ft 14 kts 194°
2026-05-05 11:30 23.37969 113.31246 57 ft 14 kts 194°
2026-05-05 11:30 23.37867 113.31218 57 ft 15 kts 194°
2026-05-05 11:31 23.37758 113.31189 57 ft 16 kts 194°
2026-05-05 11:31 23.37644 113.31158 57 ft 16 kts 194°
2026-05-05 11:31 23.37528 113.31126 57 ft 17 kts 194°
2026-05-05 11:31 23.37408 113.31094 57 ft 17 kts 192°
2026-05-05 11:32 23.37285 113.31063 57 ft 18 kts 194°
2026-05-05 11:32 23.37159 113.31029 57 ft 18 kts 194°
2026-05-05 11:32 23.37071 113.31005 57 ft 12 kts 194°
2026-05-05 11:32 23.36994 113.30983 57 ft 10 kts 194°
2026-05-05 11:33 23.36937 113.30962 57 ft 6 kts 216°
2026-05-05 11:33 23.36927 113.30919 57 ft 6 kts 285°
2026-05-05 11:33 23.36942 113.30868 57 ft 7 kts 286°
2026-05-05 11:33 23.36957 113.30809 57 ft 8 kts 285°
2026-05-05 11:34 23.36993 113.30779 57 ft 6 kts
2026-05-05 11:34 23.37043 113.30794 57 ft 16 kts 15°
2026-05-05 11:34 23.37393 113.30892 57 ft 85 kts 14°
2026-05-05 11:34 23.38171 113.31108 58 ft 144 kts 13°
2026-05-05 11:35 23.39265 113.31383 353 ft 166 kts 15°
2026-05-05 11:35 23.40401 113.31704 883 ft 175 kts 15°
2026-05-05 11:35 23.41601 113.32028 1442 ft 182 kts 15°
2026-05-05 11:35 23.42901 113.32378 1761 ft 198 kts 15°
2026-05-05 11:36 23.44294 113.32755 2099 ft 215 kts 15°
2026-05-05 11:36 23.45813 113.33167 2485 ft 232 kts 14°
2026-05-05 11:36 23.47432 113.33604 2888 ft 250 kts 14°
2026-05-05 11:36 23.49183 113.34077 3346 ft 266 kts 14°
2026-05-05 11:37 23.51006 113.34570 4047 ft 271 kts 13°
2026-05-05 11:37 23.52839 113.35066 4745 ft 276 kts 13°
2026-05-05 11:37 23.54728 113.35577 5456 ft 280 kts 12°
2026-05-05 11:37 23.56611 113.36067 6153 ft 283 kts
2026-05-05 11:38 23.58564 113.36427 6839 ft 285 kts
2026-05-05 11:38 23.60531 113.36774 7540 ft 287 kts
2026-05-05 11:38 23.62505 113.37140 8212 ft 290 kts
2026-05-05 11:38 23.64501 113.37518 8858 ft 293 kts
2026-05-05 11:39 23.66512 113.37901 9499 ft 295 kts
2026-05-05 11:39 23.68538 113.38288 10125 ft 297 kts
2026-05-05 11:39 23.70620 113.38685 10499 ft 311 kts
2026-05-05 11:39 23.72836 113.39107 10805 ft 327 kts
2026-05-05 11:40 23.75137 113.39545 11148 ft 343 kts
2026-05-05 11:40 23.77527 113.40003 11544 ft 356 kts
2026-05-05 11:40 23.80032 113.40482 11948 ft 371 kts
2026-05-05 11:40 23.82602 113.40974 12413 ft 382 kts
2026-05-05 11:41 23.85271 113.41486 13108 ft 388 kts
2026-05-05 11:41 23.87933 113.41997 13925 ft 390 kts
2026-05-05 11:41 23.90583 113.42506 14692 ft 394 kts
2026-05-05 11:41 23.93289 113.43024 15477 ft 399 kts
2026-05-05 11:42 23.96045 113.43553 16275 ft 402 kts
2026-05-05 11:42 23.98826 113.44087 17050 ft 406 kts
2026-05-05 11:42 24.01628 113.44624 17786 ft 411 kts
2026-05-05 11:42 24.04424 113.45161 18526 ft 414 kts
2026-05-05 11:43 24.07297 113.45524 19276 ft 412 kts 356°
2026-05-05 11:43 24.10162 113.45367 19915 ft 412 kts 349°
2026-05-05 11:43 24.13021 113.44991 20657 ft 414 kts 348°
2026-05-05 11:43 24.15917 113.44597 21416 ft 416 kts 348°
2026-05-05 11:44 24.18819 113.44202 22109 ft 419 kts 348°
2026-05-05 11:44 24.21720 113.43809 22741 ft 423 kts 348°
2026-05-05 11:44 24.24658 113.43411 23338 ft 427 kts 348°
2026-05-05 11:44 24.27596 113.43013 23973 ft 431 kts 348°
2026-05-05 11:45 24.30584 113.42609 24624 ft 434 kts 348°
2026-05-05 11:45 24.33624 113.42200 25287 ft 438 kts 348°
2026-05-05 11:45 24.36700 113.42066 25931 ft 447 kts 355°
2026-05-05 11:45 24.39793 113.42139 26601 ft 450 kts 355°
2026-05-05 11:46 24.42983 113.42229 27174 ft 456 kts 355°
2026-05-05 11:46 24.46190 113.42322 27801 ft 461 kts 355°
2026-05-05 11:46 24.49397 113.42416 28547 ft 462 kts 355°
2026-05-05 11:46 24.52629 113.42510 29071 ft 465 kts 354°
2026-05-05 11:47 24.55837 113.42602 29101 ft 465 kts 354°
2026-05-05 11:47 24.62307 113.42792 29108 ft 459 kts 354°
2026-05-05 11:48 24.71927 113.43066 29100 ft 461 kts 354°
2026-05-05 11:48 24.78321 113.43249 29083 ft 458 kts 354°
2026-05-05 11:49 24.84746 113.43431 29084 ft 460 kts 354°
2026-05-05 11:49 24.91135 113.43613 29090 ft 459 kts 354°
2026-05-05 11:50 24.97507 113.43796 29095 ft 457 kts 354°
2026-05-05 11:50 25.03908 113.43977 29102 ft 459 kts 354°
2026-05-05 11:51 25.10294 113.44160 29104 ft 457 kts 354°
2026-05-05 11:51 25.16672 113.44343 29104 ft 456 kts 354°
2026-05-05 11:52 25.23023 113.44524 29111 ft 456 kts 354°
2026-05-05 11:52 25.29350 113.44707 29112 ft 454 kts 354°
2026-05-05 11:53 25.35672 113.44887 29117 ft 454 kts 354°
2026-05-05 11:53 25.41993 113.45069 29116 ft 454 kts 354°
2026-05-05 11:54 25.48327 113.45251 29124 ft 451 kts 354°
2026-05-05 11:54 25.54585 113.45432 29118 ft 449 kts 354°
2026-05-05 11:55 25.60845 113.45612 29118 ft 450 kts 354°
2026-05-05 11:55 25.67091 113.45791 29126 ft 451 kts 354°
2026-05-05 11:56 25.72634 113.45952 29126 ft 449 kts 354°
2026-05-05 11:56 25.78878 113.46133 29103 ft 446 kts 354°
2026-05-05 11:57 25.85124 113.46312 29108 ft 447 kts 354°
2026-05-05 11:57 25.91305 113.46279 29090 ft 443 kts 350°
2026-05-05 11:58 25.97463 113.46003 29084 ft 441 kts 350°
2026-05-05 11:58 26.03597 113.45746 29063 ft 441 kts 350°
2026-05-05 11:59 26.09709 113.45501 29072 ft 439 kts 350°
2026-05-05 11:59 26.15843 113.45259 29080 ft 443 kts 351°
2026-05-05 12:00 26.19014 113.45132 29235 ft 457 kts 351°
2026-05-05 12:00 26.22229 113.45007 29934 ft 458 kts 351°
2026-05-05 12:00 26.25358 113.44888 30742 ft 456 kts 351°
2026-05-05 12:00 26.28531 113.44766 31042 ft 456 kts 351°
2026-05-05 12:01 26.34870 113.44525 31060 ft 449 kts 351°
2026-05-05 12:01 26.41083 113.44286 31055 ft 448 kts 351°
2026-05-05 12:02 26.47342 113.44044 31043 ft 450 kts 351°
2026-05-05 12:02 26.53576 113.43805 31035 ft 447 kts 351°
2026-05-05 12:03 26.59800 113.43566 31031 ft 448 kts 351°
2026-05-05 12:03 26.66009 113.43328 31027 ft 446 kts 351°
2026-05-05 12:04 26.72227 113.43089 31016 ft 446 kts 351°
2026-05-05 12:04 26.78428 113.42851 31023 ft 446 kts 351°
2026-05-05 12:05 26.84634 113.42612 31015 ft 445 kts 351°
2026-05-05 12:05 26.90819 113.42374 31023 ft 444 kts 351°
2026-05-05 12:06 26.97017 113.42135 31027 ft 444 kts 351°
2026-05-05 12:06 27.03197 113.41896 31021 ft 444 kts 351°
2026-05-05 12:07 27.09353 113.41659 31019 ft 442 kts 351°
2026-05-05 12:07 27.15519 113.41419 31021 ft 444 kts 351°
2026-05-05 12:08 27.21669 113.41182 31018 ft 442 kts 351°
2026-05-05 12:08 27.27842 113.40942 31010 ft 441 kts 352°
2026-05-05 12:09 27.33975 113.40713 31006 ft 443 kts 353°
2026-05-05 12:09 27.40186 113.40839 31008 ft 445 kts 354°
2026-05-05 12:10 27.46371 113.40987 31004 ft 443 kts 355°
2026-05-05 12:10 27.52540 113.41122 31001 ft 443 kts 355°
2026-05-05 12:11 27.58721 113.41251 31003 ft 445 kts 355°
2026-05-05 12:11 27.64927 113.41376 30999 ft 442 kts 355°
2026-05-05 12:12 27.71093 113.41811 30998 ft 446 kts 359°
2026-05-05 12:12 27.77275 113.42400 30997 ft 446 kts 358°
2026-05-05 12:13 27.83483 113.42973 31000 ft 445 kts 358°
2026-05-05 12:13 27.89662 113.43530 31003 ft 447 kts 359°
2026-05-05 12:14 27.95868 113.44083 31004 ft 444 kts 359°
2026-05-05 12:14 28.02017 113.44623 31005 ft 443 kts 359°
2026-05-05 12:15 28.08201 113.45163 31003 ft 444 kts 359°
2026-05-05 12:15 28.14365 113.45633 31011 ft 445 kts 358°
2026-05-05 12:16 28.20530 113.46065 31002 ft 441 kts 358°
2026-05-05 12:16 28.26657 113.46500 30992 ft 444 kts 358°
2026-05-05 12:17 28.32819 113.46942 30998 ft 442 kts 358°
2026-05-05 12:17 28.38981 113.47385 31002 ft 442 kts 359°
2026-05-05 12:18 28.45111 113.47823 31005 ft 442 kts 359°
2026-05-05 12:18 28.51209 113.48257 31006 ft 440 kts 359°
2026-05-05 12:19 28.57365 113.48697 31009 ft 442 kts 359°
2026-05-05 12:19 28.63484 113.49135 31004 ft 440 kts 359°
2026-05-05 12:20 28.69604 113.49573 30999 ft 440 kts 359°
2026-05-05 12:20 28.75713 113.50011 30998 ft 441 kts 359°
2026-05-05 12:21 28.81870 113.50453 30999 ft 441 kts 359°
2026-05-05 12:21 28.87935 113.50889 30996 ft 440 kts 359°
2026-05-05 12:22 28.94092 113.51331 31003 ft 440 kts 359°
2026-05-05 12:22 29.00196 113.51771 31013 ft 441 kts 359°
2026-05-05 12:23 29.06263 113.52209 31009 ft 437 kts 359°
2026-05-05 12:23 29.12385 113.52651 31027 ft 438 kts 360°
2026-05-05 12:24 29.18464 113.53090 31023 ft 438 kts 360°
2026-05-05 12:24 29.24548 113.53530 31026 ft 437 kts 360°
2026-05-05 12:25 29.30630 113.53986 31022 ft 438 kts
2026-05-05 12:25 29.36725 113.54519 31017 ft 439 kts
2026-05-05 12:26 29.42801 113.55050 30999 ft 436 kts
2026-05-05 12:26 29.48839 113.55576 30991 ft 436 kts
2026-05-05 12:27 29.54902 113.56103 30981 ft 438 kts
2026-05-05 12:27 29.60960 113.56630 30969 ft 435 kts
2026-05-05 12:28 29.67047 113.57159 30972 ft 437 kts
2026-05-05 12:28 29.73074 113.57685 30959 ft 435 kts
2026-05-05 12:29 29.79149 113.58215 30951 ft 436 kts
2026-05-05 12:29 29.85172 113.58740 30952 ft 435 kts
2026-05-05 12:30 29.91218 113.59269 30953 ft 436 kts
2026-05-05 12:30 29.97112 113.60878 30944 ft 441 kts 18°
2026-05-05 12:31 30.02797 113.63680 30941 ft 445 kts 19°
2026-05-05 12:31 30.08460 113.66507 30938 ft 444 kts 19°
2026-05-05 12:32 30.14137 113.69342 30949 ft 444 kts 19°
2026-05-05 12:32 30.19819 113.72183 30952 ft 444 kts 19°
2026-05-05 12:33 30.25454 113.75004 30941 ft 442 kts 19°
2026-05-05 12:33 30.31127 113.77846 30943 ft 442 kts 19°
2026-05-05 12:34 30.36751 113.80669 30954 ft 443 kts 19°
2026-05-05 12:34 30.42392 113.83502 30942 ft 441 kts 19°
2026-05-05 12:35 30.48053 113.86350 30938 ft 441 kts 19°
2026-05-05 12:35 30.53696 113.89191 30932 ft 442 kts 19°
2026-05-05 12:36 30.59312 113.92024 30945 ft 441 kts 19°
2026-05-05 12:36 30.64987 113.94881 30924 ft 440 kts 19°
2026-05-05 12:37 30.70644 113.97579 30936 ft 440 kts 19°
2026-05-05 12:37 30.76203 114.00681 30935 ft 443 kts 21°
2026-05-05 12:38 30.81800 114.03790 30936 ft 442 kts 21°
2026-05-05 12:38 30.87417 114.06838 30934 ft 442 kts 21°
2026-05-05 12:39 30.92980 114.09856 30936 ft 441 kts 21°
2026-05-05 12:39 30.94564 114.10716 30931 ft 440 kts 21°
2026-05-05 12:40 31.00104 114.13725 30930 ft 441 kts 21°
2026-05-05 12:40 31.05672 114.16752 30938 ft 441 kts 21°
2026-05-05 12:41 31.11260 114.19790 30941 ft 441 kts 21°
2026-05-05 12:41 31.16816 114.22815 30947 ft 440 kts 21°
2026-05-05 12:42 31.22387 114.25851 30947 ft 441 kts 21°
2026-05-05 12:42 31.27934 114.28879 30949 ft 442 kts 21°
2026-05-05 12:43 31.33516 114.31866 30939 ft 437 kts 17°
2026-05-05 12:43 31.39435 114.33253 30938 ft 433 kts
2026-05-05 12:44 31.45435 114.33455 30943 ft 433 kts 360°
2026-05-05 12:44 31.51467 114.33630 30937 ft 431 kts
2026-05-05 12:45 31.57475 114.33807 30949 ft 433 kts 360°
2026-05-05 12:45 31.63461 114.33984 30938 ft 431 kts
2026-05-05 12:46 31.69490 114.34161 30941 ft 432 kts
2026-05-05 12:46 31.75505 114.34341 30941 ft 433 kts
2026-05-05 12:47 31.81528 114.34526 30936 ft 432 kts
2026-05-05 12:47 31.87561 114.34708 30926 ft 431 kts
2026-05-05 12:48 31.93548 114.34889 30924 ft 430 kts
2026-05-05 12:48 31.99567 114.35071 30923 ft 431 kts 360°
2026-05-05 12:49 32.05586 114.35252 30918 ft 431 kts
2026-05-05 12:49 32.11603 114.35435 30924 ft 432 kts
2026-05-05 12:50 32.17581 114.35616 30931 ft 430 kts
2026-05-05 12:50 32.23576 114.35798 30922 ft 430 kts
2026-05-05 12:51 32.29580 114.36143 30929 ft 431 kts
2026-05-05 12:51 32.35559 114.36723 30920 ft 430 kts
2026-05-05 12:52 32.41538 114.37289 30920 ft 431 kts
2026-05-05 12:52 32.47519 114.37845 30919 ft 430 kts
2026-05-05 12:53 32.53498 114.38397 30920 ft 431 kts
2026-05-05 12:53 32.59473 114.38946 30917 ft 430 kts
2026-05-05 12:54 32.68409 114.39770 30916 ft 429 kts
2026-05-05 12:55 32.74018 114.40292 30914 ft 430 kts
2026-05-05 12:55 32.79949 114.40846 30911 ft 428 kts
2026-05-05 12:56 32.85931 114.41404 30911 ft 431 kts
2026-05-05 12:56 32.91865 114.41958 30911 ft 429 kts
2026-05-05 12:57 32.97811 114.42514 30905 ft 430 kts
2026-05-05 12:57 33.03796 114.43075 30902 ft 426 kts
2026-05-05 12:58 33.09739 114.43632 30901 ft 430 kts
2026-05-05 12:58 33.15726 114.44194 30915 ft 428 kts
2026-05-05 12:59 33.21658 114.44752 30915 ft 429 kts
2026-05-05 12:59 33.27576 114.45309 30914 ft 429 kts
2026-05-05 13:00 33.36518 114.46149 30912 ft 429 kts
2026-05-05 13:01 33.48465 114.47275 30899 ft 430 kts
2026-05-05 13:01 33.54427 114.47837 30905 ft 430 kts
2026-05-05 13:02 33.60383 114.48400 30901 ft 429 kts
2026-05-05 13:02 33.66351 114.48960 30898 ft 430 kts
2026-05-05 13:03 33.72286 114.49514 30897 ft 430 kts
2026-05-05 13:03 33.78281 114.50075 30896 ft 429 kts
2026-05-05 13:04 33.84200 114.50631 30886 ft 428 kts
2026-05-05 13:04 33.90162 114.51193 30890 ft 430 kts
2026-05-05 13:05 33.96137 114.51756 30886 ft 429 kts
2026-05-05 13:05 34.02082 114.52317 30887 ft 429 kts
2026-05-05 13:06 34.08022 114.52879 30873 ft 430 kts
2026-05-05 13:06 34.14001 114.53445 30890 ft 430 kts
2026-05-05 13:07 34.19965 114.54012 30901 ft 429 kts
2026-05-05 13:07 34.25945 114.54579 30885 ft 430 kts
2026-05-05 13:08 34.31898 114.55145 30882 ft 431 kts
2026-05-05 13:08 34.37878 114.55715 30884 ft 431 kts
2026-05-05 13:09 34.43861 114.56286 30871 ft 430 kts
2026-05-05 13:09 34.49853 114.56855 30886 ft 432 kts
2026-05-05 13:10 34.55806 114.57420 30876 ft 431 kts
2026-05-05 13:10 34.61812 114.57989 30882 ft 431 kts
2026-05-05 13:11 34.67784 114.58556 30868 ft 433 kts
2026-05-05 13:11 34.73806 114.59129 30866 ft 432 kts
2026-05-05 13:12 34.79787 114.59699 30863 ft 433 kts
2026-05-05 13:12 34.85798 114.60273 30859 ft 432 kts
2026-05-05 13:13 34.91794 114.60846 30862 ft 432 kts
2026-05-05 13:13 34.97791 114.61420 30851 ft 434 kts
2026-05-05 13:14 35.03807 114.61997 30845 ft 432 kts
2026-05-05 13:14 35.09792 114.62572 30853 ft 432 kts
2026-05-05 13:15 35.15786 114.63148 30860 ft 432 kts
2026-05-05 13:15 35.21819 114.63728 30862 ft 434 kts
2026-05-05 13:16 35.27828 114.64308 30855 ft 433 kts
2026-05-05 13:16 35.33825 114.64887 30854 ft 433 kts
2026-05-05 13:17 35.39847 114.65469 30847 ft 435 kts
2026-05-05 13:17 35.45861 114.66052 30841 ft 434 kts
2026-05-05 13:18 35.51910 114.66639 30844 ft 435 kts
2026-05-05 13:18 35.57918 114.67223 30838 ft 435 kts
2026-05-05 13:19 35.63991 114.67814 30841 ft 434 kts
2026-05-05 13:19 35.69999 114.68400 30836 ft 435 kts
2026-05-05 13:20 35.76013 114.68986 30835 ft 435 kts
2026-05-05 13:20 35.82086 114.69580 30834 ft 435 kts
2026-05-05 13:21 35.88111 114.70170 30826 ft 435 kts
2026-05-05 13:21 35.94136 114.70760 30826 ft 436 kts
2026-05-05 13:22 36.00208 114.71357 30820 ft 436 kts
2026-05-05 13:22 36.06247 114.71950 30821 ft 437 kts
2026-05-05 13:23 36.12310 114.72546 30836 ft 437 kts
2026-05-05 13:23 36.18370 114.73138 30833 ft 438 kts
2026-05-05 13:24 36.24462 114.73734 30820 ft 439 kts
2026-05-05 13:24 36.30546 114.74335 30823 ft 439 kts
2026-05-05 13:25 36.36591 114.75162 30811 ft 442 kts
2026-05-05 13:25 36.42395 114.77892 30822 ft 452 kts 20°
2026-05-05 13:26 36.48081 114.81182 30814 ft 449 kts 20°
2026-05-05 13:26 36.53769 114.84479 30808 ft 451 kts 20°
2026-05-05 13:27 36.59466 114.87786 30806 ft 451 kts 20°
2026-05-05 13:27 36.65117 114.91070 30801 ft 453 kts 20°
2026-05-05 13:28 36.70821 114.94390 30801 ft 451 kts 20°
2026-05-05 13:28 36.76510 114.97707 30794 ft 452 kts 20°
2026-05-05 13:29 36.82197 115.01027 30790 ft 454 kts 20°
2026-05-05 13:29 36.87933 115.04382 30793 ft 454 kts 20°
2026-05-05 13:30 36.93635 115.07721 30794 ft 455 kts 20°
2026-05-05 13:30 36.99316 115.11056 30792 ft 452 kts 20°
2026-05-05 13:31 37.05039 115.14418 30782 ft 455 kts 20°
2026-05-05 13:31 37.10764 115.17790 30790 ft 456 kts 20°
2026-05-05 13:32 37.16496 115.21170 30786 ft 454 kts 20°
2026-05-05 13:32 37.22207 115.24543 30790 ft 455 kts 20°
2026-05-05 13:33 37.27935 115.27933 30778 ft 456 kts 20°
2026-05-05 13:33 37.33691 115.31345 30781 ft 457 kts 20°
2026-05-05 13:34 37.39435 115.34755 30776 ft 456 kts 20°
2026-05-05 13:34 37.45166 115.38163 30778 ft 458 kts 20°
2026-05-05 13:35 37.50910 115.41585 30777 ft 459 kts 20°
2026-05-05 13:35 37.56670 115.45023 30770 ft 457 kts 20°
2026-05-05 13:36 37.62380 115.48436 30773 ft 460 kts 20°
2026-05-05 13:36 37.68135 115.51883 30771 ft 458 kts 20°
2026-05-05 13:37 37.73916 115.55350 30759 ft 459 kts 20°
2026-05-05 13:37 37.79840 115.58050 30750 ft 449 kts
2026-05-05 13:38 37.86016 115.58475 30759 ft 442 kts 353°
2026-05-05 13:38 37.92157 115.58007 30746 ft 441 kts 353°
2026-05-05 13:39 37.95194 115.57775 30278 ft 437 kts 353°
2026-05-05 13:39 37.98209 115.57547 29771 ft 432 kts 353°
2026-05-05 13:39 38.01181 115.57324 29399 ft 425 kts 353°
2026-05-05 13:39 38.04114 115.57104 28957 ft 420 kts 353°
2026-05-05 13:40 38.07065 115.56881 28483 ft 434 kts 353°
2026-05-05 13:40 38.10116 115.56686 27981 ft 438 kts 354°
2026-05-05 13:40 38.13140 115.56549 27492 ft 435 kts 353°
2026-05-05 13:40 38.16166 115.56342 26982 ft 432 kts 353°
2026-05-05 13:41 38.19154 115.56132 26482 ft 427 kts 353°
2026-05-05 13:41 38.22115 115.55923 25967 ft 424 kts 353°
2026-05-05 13:41 38.25045 115.55996 25458 ft 424 kts
2026-05-05 13:41 38.27950 115.56744 24948 ft 425 kts 13°
2026-05-05 13:42 38.30703 115.58109 24424 ft 425 kts 21°
2026-05-05 13:42 38.33371 115.59734 23896 ft 422 kts 22°
2026-05-05 13:42 38.36002 115.61368 23383 ft 419 kts 22°
2026-05-05 13:42 38.38610 115.62995 22870 ft 415 kts 22°
2026-05-05 13:43 38.41169 115.64597 22363 ft 412 kts 22°
2026-05-05 13:43 38.43734 115.66206 21856 ft 408 kts 23°
2026-05-05 13:43 38.46285 115.67809 21350 ft 405 kts 23°
2026-05-05 13:43 38.48777 115.69379 20851 ft 402 kts 23°
2026-05-05 13:44 38.51278 115.70956 20356 ft 399 kts 23°
2026-05-05 13:44 38.53736 115.72507 19860 ft 395 kts 23°
2026-05-05 13:44 38.56201 115.74064 19367 ft 392 kts 23°
2026-05-05 13:44 38.58629 115.75599 18881 ft 390 kts 23°
2026-05-05 13:45 38.61047 115.77129 18397 ft 387 kts 23°
2026-05-05 13:45 38.63456 115.78655 17897 ft 384 kts 24°
2026-05-05 13:45 38.65786 115.80227 17420 ft 383 kts 30°
2026-05-05 13:45 38.67924 115.82265 17113 ft 383 kts 37°
2026-05-05 13:46 38.70021 115.84502 17105 ft 395 kts 37°
2026-05-05 13:46 38.72104 115.86738 17061 ft 394 kts 37°
2026-05-05 13:46 38.74205 115.88998 16972 ft 394 kts 37°
2026-05-05 13:46 38.76302 115.91254 16871 ft 393 kts 37°
2026-05-05 13:47 38.78382 115.93495 16756 ft 392 kts 37°
2026-05-05 13:47 38.80471 115.95747 16660 ft 391 kts 37°
2026-05-05 13:47 38.82561 115.98002 16551 ft 390 kts 37°
2026-05-05 13:47 38.84623 116.00228 16446 ft 390 kts 37°
2026-05-05 13:48 38.86700 116.02473 16353 ft 389 kts 37°
2026-05-05 13:48 38.88771 116.04712 16247 ft 389 kts 37°
2026-05-05 13:48 38.90843 116.06955 16143 ft 389 kts 37°
2026-05-05 13:48 38.92876 116.09157 16042 ft 388 kts 37°
2026-05-05 13:49 38.94947 116.11403 15939 ft 387 kts 37°
2026-05-05 13:49 38.96998 116.13628 15837 ft 386 kts 37°
2026-05-05 13:49 38.99067 116.15808 15729 ft 383 kts 33°
2026-05-05 13:49 39.01360 116.17532 15625 ft 380 kts 21°
2026-05-05 13:50 39.03839 116.18626 15524 ft 375 kts 10°
2026-05-05 13:50 39.06383 116.19068 15420 ft 371 kts 359°
2026-05-05 13:50 39.08949 116.18926 15323 ft 367 kts 352°
2026-05-05 13:50 39.11508 116.18613 15225 ft 367 kts 351°
2026-05-05 13:51 39.14061 116.18273 15132 ft 366 kts 351°
2026-05-05 13:51 39.16590 116.17919 15042 ft 365 kts 351°
2026-05-05 13:51 39.19084 116.17559 14948 ft 365 kts 351°
2026-05-05 13:51 39.21610 116.17188 14848 ft 365 kts 351°
2026-05-05 13:52 39.24123 116.16814 14750 ft 362 kts 351°
2026-05-05 13:52 39.26648 116.16437 14653 ft 363 kts 351°
2026-05-05 13:52 39.29147 116.16061 14552 ft 360 kts 351°
2026-05-05 13:52 39.31611 116.15689 14457 ft 361 kts 350°
2026-05-05 13:53 39.34125 116.15308 14365 ft 360 kts 351°
2026-05-05 13:53 39.36623 116.14930 14274 ft 360 kts 351°
2026-05-05 13:53 39.39100 116.14554 14177 ft 359 kts 351°
2026-05-05 13:53 39.41570 116.14178 14075 ft 357 kts 351°
2026-05-05 13:54 39.44041 116.13802 13981 ft 358 kts 351°
2026-05-05 13:54 39.46500 116.13429 13886 ft 356 kts 351°
2026-05-05 13:54 39.48947 116.13055 13788 ft 355 kts 350°
2026-05-05 13:54 39.51417 116.12679 13697 ft 355 kts 350°
2026-05-05 13:55 39.53849 116.12308 13596 ft 354 kts 350°
2026-05-05 13:55 39.56312 116.11932 13493 ft 352 kts 350°
2026-05-05 13:55 39.58718 116.11562 13416 ft 352 kts 350°
2026-05-05 13:55 39.61181 116.11185 13327 ft 353 kts 350°
2026-05-05 13:56 39.63601 116.10814 13227 ft 352 kts 350°
2026-05-05 13:56 39.66015 116.10444 13133 ft 350 kts 350°
2026-05-05 13:56 39.68455 116.10069 13040 ft 352 kts 350°
2026-05-05 13:56 39.70868 116.09699 12940 ft 350 kts 350°
2026-05-05 13:57 39.73314 116.09322 12857 ft 351 kts 350°
2026-05-05 13:57 39.75712 116.08953 12771 ft 351 kts 350°
2026-05-05 13:57 39.78154 116.08578 12674 ft 351 kts 350°
2026-05-05 13:57 39.80557 116.08208 12584 ft 350 kts 350°
2026-05-05 13:58 39.82995 116.07832 12480 ft 350 kts 350°
2026-05-05 13:58 39.85417 116.07458 12392 ft 349 kts 350°
2026-05-05 13:58 39.87807 116.07089 12305 ft 349 kts 349°
2026-05-05 13:58 39.90247 116.06711 12213 ft 350 kts 349°
2026-05-05 13:59 39.95057 116.05966 12031 ft 350 kts 349°
2026-05-05 13:59 39.97475 116.05592 11939 ft 350 kts 349°
2026-05-05 14:00 40.02303 116.04842 11768 ft 350 kts 349°
2026-05-05 14:00 40.04736 116.04465 11674 ft 349 kts 349°
2026-05-05 14:00 40.07138 116.04091 11584 ft 350 kts 349°
2026-05-05 14:00 40.09561 116.03714 11500 ft 350 kts 349°
2026-05-05 14:01 40.11983 116.03336 11414 ft 352 kts 349°
2026-05-05 14:01 40.14433 116.02949 11321 ft 350 kts 348°
2026-05-05 14:01 40.16754 116.02114 11239 ft 346 kts 333°
2026-05-05 14:01 40.18764 116.00510 11232 ft 340 kts 317°
2026-05-05 14:02 40.20373 115.98240 11228 ft 336 kts 302°
2026-05-05 14:02 40.21424 115.95576 11208 ft 333 kts 288°
2026-05-05 14:02 40.21923 115.92621 11156 ft 334 kts 276°
2026-05-05 14:02 40.22156 115.89602 11070 ft 332 kts 275°
2026-05-05 14:03 40.22340 115.86599 10980 ft 333 kts 274°
2026-05-05 14:03 40.22497 115.83610 10904 ft 330 kts 274°
2026-05-05 14:03 40.22918 115.80659 10821 ft 331 kts 288°
2026-05-05 14:03 40.23948 115.77953 10728 ft 337 kts 302°
2026-05-05 14:04 40.25520 115.75716 10644 ft 338 kts 318°
2026-05-05 14:04 40.27547 115.74120 10566 ft 345 kts 334°
2026-05-05 14:04 40.29919 115.73322 10486 ft 353 kts 351°
2026-05-05 14:04 40.32372 115.73299 10411 ft 358 kts 359°
2026-05-05 14:05 40.34854 115.73655 10318 ft 364 kts 10°
2026-05-05 14:05 40.37225 115.74818 10213 ft 366 kts 25°
2026-05-05 14:05 40.39362 115.76722 10119 ft 373 kts 39°
2026-05-05 14:05 40.41096 115.79237 10005 ft 367 kts 54°
2026-05-05 14:06 40.42278 115.82079 9861 ft 351 kts 69°
2026-05-05 14:06 40.42904 115.85075 9820 ft 331 kts 82°
2026-05-05 14:06 40.43024 115.88023 9720 ft 319 kts 95°
2026-05-05 14:06 40.42596 115.90768 9608 ft 303 kts 116°
2026-05-05 14:07 40.41855 115.93343 9536 ft 302 kts 108°
2026-05-05 14:07 40.41427 115.96034 9452 ft 302 kts 100°
2026-05-05 14:07 40.41200 115.98754 9362 ft 302 kts 97°
2026-05-05 14:07 40.41043 116.01498 9280 ft 303 kts 96°
2026-05-05 14:08 40.40903 116.04261 9199 ft 302 kts 96°
2026-05-05 14:08 40.40767 116.07004 9116 ft 302 kts 96°
2026-05-05 14:08 40.40635 116.09659 9045 ft 301 kts 96°
2026-05-05 14:08 40.40496 116.12421 8963 ft 301 kts 96°
2026-05-05 14:09 40.40360 116.15115 8884 ft 298 kts 96°
2026-05-05 14:09 40.40283 116.17834 8729 ft 301 kts 91°
2026-05-05 14:09 40.40341 116.20571 8447 ft 300 kts 91°
2026-05-05 14:09 40.40394 116.23289 8186 ft 296 kts 91°
2026-05-05 14:10 40.40429 116.25969 7937 ft 292 kts 92°
2026-05-05 14:10 40.40457 116.28617 7701 ft 288 kts 92°
2026-05-05 14:10 40.40480 116.31228 7465 ft 285 kts 93°
2026-05-05 14:10 40.40503 116.33801 7234 ft 281 kts 93°
2026-05-05 14:11 40.40524 116.36340 7002 ft 277 kts 94°
2026-05-05 14:11 40.40545 116.38849 6779 ft 273 kts 94°
2026-05-05 14:11 40.40564 116.41318 6553 ft 269 kts 94°
2026-05-05 14:11 40.40583 116.43750 6334 ft 265 kts 94°
2026-05-05 14:12 40.40602 116.46134 6141 ft 259 kts 95°
2026-05-05 14:12 40.40566 116.48460 5904 ft 250 kts 105°
2026-05-05 14:12 40.39931 116.50424 5684 ft 231 kts 132°
2026-05-05 14:12 40.38868 116.51911 5466 ft 216 kts 155°
2026-05-05 14:13 40.37497 116.52528 5263 ft 201 kts 172°
2026-05-05 14:13 40.36137 116.52837 5012 ft 197 kts 175°
2026-05-05 14:13 40.34792 116.53081 4768 ft 194 kts 176°
2026-05-05 14:13 40.33461 116.53300 4527 ft 191 kts 176°
2026-05-05 14:14 40.32151 116.53507 4286 ft 188 kts 176°
2026-05-05 14:14 40.30866 116.53706 4048 ft 184 kts 176°
2026-05-05 14:14 40.29605 116.53902 3815 ft 181 kts 176°
2026-05-05 14:14 40.28367 116.54097 3588 ft 178 kts 176°
2026-05-05 14:15 40.27150 116.54288 3364 ft 174 kts 176°
2026-05-05 14:15 40.25951 116.54479 3132 ft 171 kts 176°
2026-05-05 14:15 40.24796 116.54661 2921 ft 166 kts 176°
2026-05-05 14:15 40.23698 116.54836 2704 ft 151 kts 176°
2026-05-05 14:16 40.22704 116.54994 2515 ft 139 kts 176°
2026-05-05 14:16 40.21770 116.55140 2361 ft 133 kts 176°
2026-05-05 14:16 40.20837 116.55287 2189 ft 134 kts 175°
2026-05-05 14:16 40.19917 116.55434 2016 ft 135 kts 175°
2026-05-05 14:17 40.18994 116.55581 1832 ft 134 kts 175°
2026-05-05 14:17 40.18057 116.55727 1655 ft 135 kts 175°
2026-05-05 14:17 40.17123 116.55877 1475 ft 135 kts 174°
2026-05-05 14:17 40.16190 116.56024 1292 ft 134 kts 175°
2026-05-05 14:18 40.15258 116.56172 1124 ft 135 kts 176°
2026-05-05 14:18 40.14323 116.56317 944 ft 136 kts 174°
2026-05-05 14:18 40.13382 116.56470 766 ft 138 kts 175°
2026-05-05 14:18 40.12436 116.56618 578 ft 137 kts 173°
2026-05-05 14:19 40.11475 116.56768 397 ft 139 kts 175°
2026-05-05 14:19 40.10510 116.56915 209 ft 139 kts 175°
2026-05-05 14:19 40.09592 116.57063 129 ft 118 kts 176°
2026-05-05 14:19 40.08974 116.57166 129 ft 19 kts 169°
2026-05-05 14:20 40.08895 116.57188 129 ft 8 kts 164°
2026-05-05 14:20 40.08861 116.57204 129 ft 2 kts 158°
2026-05-05 14:20 40.08859 116.57204 129 ft 0 kts 158°
2026-05-05 14:21 40.08850 116.57209 129 ft 4 kts 158°
2026-05-05 14:21 40.08790 116.57248 129 ft 13 kts 146°
2026-05-05 14:22 40.08714 116.57314 129 ft 12 kts 145°
2026-05-05 14:22 40.08645 116.57375 129 ft 11 kts 146°
2026-05-05 14:22 40.08579 116.57423 129 ft 10 kts 155°
2026-05-05 14:22 40.08513 116.57452 129 ft 9 kts 166°
2026-05-05 14:23 40.08453 116.57465 129 ft 6 kts 164°
2026-05-05 14:23 40.08428 116.57510 128 ft 5 kts 98°
2026-05-05 14:23 40.08426 116.57559 129 ft 5 kts 89°
2026-05-05 14:23 40.08428 116.57605 129 ft 4 kts 85°
2026-05-05 14:24 40.08422 116.57645 128 ft 4 kts 115°
2026-05-05 14:24 40.08403 116.57668 129 ft 3 kts 161°
2026-05-05 14:24 40.08382 116.57673 129 ft 3 kts 172°
2026-05-05 14:24 40.08380 116.57674 129 ft 0 kts 172°